Weather History for Fort Collins, CO

Change the Weather History Date:

Monday, April 15, 2013

  Actual Average Record
Temperature  
Mean Temperature 30 °F -  
Max Temperature 37 °F 58 °F 84 °F (2002)
Min Temperature 23 °F 32 °F 21 °F (2014)
Degree Days  
Heating Degree Days 35    
Moisture  
Dew Point 22 °F    
Average Humidity 83    
Maximum Humidity 93    
Minimum Humidity 36    
Precipitation  
Precipitation 0.03 in - - ()
Sea Level Pressure  
Sea Level Pressure 29.87 in    
Wind  
Wind Speed 10 mph (ENE)    
Max Wind Speed 22 mph    
Max Gust Speed 25 mph    
Visibility 3 miles    
Events      
Averages and records for this station are not official NWS values.
T = Trace of Precipitation, MM = Missing Value Source: NWS Daily Summary

Daily Weather History Graph

Daily Weather History Graph

Search for Another Location

Airport:

Trip Planner

Search our weather history database for the weather conditions in past years. The results will help you decide how hot, cold, wet, or windy it might be!

Date:

Astronomy

Apr. 15, 2013 Rise Set
Actual Time 6:21 AM MDT 7:39 PM MDT
Civil Twilight 5:52 AM MDT 8:07 PM MDT
Nautical Twilight 5:19 AM MDT 8:41 PM MDT
Astronomical Twilight 4:43 AM MDT 9:17 PM MDT
Moon 9:48 AM MDT (4/15) No Moon Set
Length of Visible Light 14h 14m
Length of Day
13h 18m
Waxing Crescent, 25% of the Moon is Illuminated
Apr 15
Waxing Crescent
Apr 18
First Quarter
Apr 25
Full
May 2
Last Quarter
May 9
New

Hourly Weather History & Observations

Time (MDT) Temp. Windchill Dew Point Humidity Pressure Visibility Wind Dir Wind Speed Gust Speed Precip Events Conditions
12:15 AM 37.4 °F 30.3 °F 12.2 °F 36% 29.73 in 10.0 mi NE 10.4 mph - N/A   Overcast
12:35 AM 37.4 °F 30.3 °F 14.0 °F 38% 29.72 in 10.0 mi NNE 10.4 mph - N/A   Overcast
12:55 AM 37.4 °F 30.3 °F 14.0 °F 38% 29.74 in 10.0 mi South 10.4 mph - N/A   Overcast
1:15 AM 37.4 °F 30.8 °F 15.8 °F 41% 29.75 in 10.0 mi SE 9.2 mph - N/A   Overcast
1:55 AM 33.8 °F 24.3 °F 17.6 °F 52% 29.79 in 10.0 mi East 13.8 mph 23.0 mph N/A   Overcast
2:15 AM 33.8 °F 21.9 °F 19.4 °F 56% 29.78 in 10.0 mi East 21.9 mph 25.3 mph N/A   Overcast
2:35 AM 32.0 °F 20.8 °F 21.2 °F 64% 29.80 in 10.0 mi East 17.3 mph - N/A   Overcast
2:55 AM 32.0 °F 21.6 °F 21.2 °F 64% 29.79 in 10.0 mi East 15.0 mph - N/A   Overcast
3:15 AM 30.2 °F 20.2 °F 21.2 °F 69% 29.82 in 10.0 mi East 12.7 mph - N/A   Overcast
3:35 AM 30.2 °F 19.8 °F 24.8 °F 80% 29.79 in 6.0 mi East 13.8 mph - N/A   Overcast
3:55 AM 28.4 °F 17.5 °F 24.8 °F 86% 29.77 in 8.0 mi East 13.8 mph - N/A   Overcast
4:15 AM 28.4 °F 18.5 °F 24.8 °F 86% 29.77 in 10.0 mi ENE 11.5 mph - N/A   Mostly Cloudy
4:55 AM 28.4 °F 19.7 °F 26.6 °F 93% 29.78 in 2.0 mi ENE 9.2 mph - N/A   Overcast
5:15 AM 28.4 °F 20.4 °F 24.8 °F 86% 29.78 in 1.5 mi NE 8.1 mph - N/A   Overcast
5:35 AM 28.4 °F 20.4 °F 24.8 °F 86% 29.78 in 1.2 mi NE 8.1 mph - N/A   Overcast
5:55 AM 28.4 °F 21.2 °F 24.8 °F 86% 29.78 in 1.5 mi NE 6.9 mph - N/A   Overcast
6:15 AM 26.6 °F 19.1 °F 24.8 °F 93% 29.79 in 1.2 mi NE 6.9 mph - N/A   Overcast
6:35 AM 26.6 °F 19.1 °F 24.8 °F 93% 29.81 in 0.2 mi ENE 6.9 mph - N/A   Overcast
7:15 AM 26.6 °F 18.2 °F 24.8 °F 93% 29.80 in 0.2 mi ESE 8.1 mph - N/A   Overcast
7:35 AM 26.6 °F 16.2 °F 24.8 °F 93% 29.81 in 0.5 mi ESE 11.5 mph - N/A   Overcast
7:55 AM 26.6 °F 17.5 °F 24.8 °F 93% 29.82 in 0.5 mi ESE 9.2 mph - N/A   Overcast
8:15 AM 26.6 °F 18.2 °F 24.8 °F 93% 29.82 in 0.8 mi SE 8.1 mph - N/A   Overcast
8:35 AM 26.6 °F 16.2 °F 24.8 °F 93% 29.81 in 0.8 mi SE 11.5 mph - N/A   Overcast
8:55 AM 26.6 °F 17.5 °F 24.8 °F 93% 29.82 in 0.5 mi SE 9.2 mph - N/A   Overcast
9:15 AM 26.6 °F 17.5 °F 24.8 °F 93% 29.83 in 0.5 mi ESE 9.2 mph - N/A   Overcast
9:35 AM 26.6 °F 17.5 °F 24.8 °F 93% 29.83 in 0.2 mi ESE 9.2 mph - N/A   Overcast
9:55 AM 26.6 °F 19.1 °F 24.8 °F 93% 29.84 in 0.2 mi SE 6.9 mph - N/A   Overcast
10:15 AM 26.6 °F 19.1 °F 24.8 °F 93% 29.85 in 0.2 mi ESE 6.9 mph - N/A   Overcast
10:35 AM 26.6 °F 15.7 °F 24.8 °F 93% 29.84 in 0.2 mi ENE 12.7 mph - N/A   Overcast
10:55 AM 26.6 °F 16.8 °F 23.0 °F 86% 29.85 in 0.5 mi ENE 10.4 mph - N/A   Overcast
11:15 AM 24.8 °F 15.3 °F 23.0 °F 93% 29.86 in 0.5 mi East 9.2 mph - N/A   Overcast
11:55 AM 24.8 °F 13.4 °F 21.2 °F 86% 29.86 in 0.8 mi ENE 12.7 mph - 0.01 in   Overcast
12:15 PM 24.8 °F 14.0 °F 23.0 °F 93% 29.86 in 0.8 mi NE 11.5 mph - N/A   Overcast
12:35 PM 24.8 °F 15.3 °F 23.0 °F 93% 29.86 in 0.5 mi NE 9.2 mph - N/A   Overcast
12:55 PM 26.6 °F 17.5 °F 23.0 °F 86% 29.87 in 0.8 mi NE 9.2 mph - N/A   Overcast
1:15 PM 26.6 °F 16.8 °F 21.2 °F 80% 29.88 in 0.8 mi NNE 10.4 mph - N/A   Overcast
1:35 PM 26.6 °F 16.8 °F 23.0 °F 86% 29.86 in 1.0 mi NNE 10.4 mph - N/A   Overcast
1:55 PM 26.6 °F 18.2 °F 23.0 °F 86% 29.87 in 1.2 mi NE 8.1 mph - N/A   Overcast
2:15 PM 26.6 °F 16.8 °F 21.2 °F 80% 29.87 in 2.0 mi NNE 10.4 mph - N/A   Overcast
2:35 PM 24.8 °F 16.1 °F 21.2 °F 86% 29.88 in 2.5 mi NNE 8.1 mph - N/A   Mostly Cloudy
2:55 PM 24.8 °F 14.0 °F 21.2 °F 86% 29.88 in 0.8 mi North 11.5 mph - N/A   Overcast
3:35 PM 24.8 °F 14.6 °F 21.2 °F 86% 29.89 in 1.0 mi NNE 10.4 mph - 0.01 in   Overcast
3:55 PM 24.8 °F 16.1 °F 21.2 °F 86% 29.88 in 1.5 mi NE 8.1 mph - 0.01 in   Overcast
4:15 PM 24.8 °F 15.3 °F 21.2 °F 86% 29.90 in 3.0 mi NNE 9.2 mph - N/A   Overcast
4:35 PM 24.8 °F 14.6 °F 21.2 °F 86% 29.89 in 1.8 mi NE 10.4 mph - N/A   Overcast
4:55 PM 24.8 °F 16.1 °F 21.2 °F 86% 29.90 in 1.2 mi NE 8.1 mph - N/A   Overcast
5:15 PM 24.8 °F 14.6 °F 21.2 °F 86% 29.90 in 2.5 mi NNE 10.4 mph - N/A   Overcast
5:35 PM 24.8 °F 15.3 °F 21.2 °F 86% 29.92 in 4.0 mi NNE 9.2 mph - 0.01 in   Overcast
5:55 PM 24.8 °F 15.3 °F 21.2 °F 86% 29.92 in 1.8 mi NNE 9.2 mph - 0.01 in   Overcast
6:15 PM 24.8 °F 16.1 °F 21.2 °F 86% 29.94 in 2.0 mi NNE 8.1 mph - N/A   Overcast
6:35 PM 24.8 °F 16.9 °F 21.2 °F 86% 29.93 in 2.0 mi NNE 6.9 mph - N/A   Overcast
7:15 PM 24.8 °F 16.9 °F 21.2 °F 86% 29.95 in 1.8 mi NNE 6.9 mph - N/A   Overcast
7:35 PM 24.8 °F 16.9 °F 21.2 °F 86% 29.96 in 3.0 mi NE 6.9 mph - N/A   Overcast
7:55 PM 24.8 °F 16.9 °F 21.2 °F 86% 29.98 in 2.5 mi NNE 6.9 mph - N/A   Overcast
8:15 PM 24.8 °F 17.9 °F 21.2 °F 86% 29.98 in 2.5 mi NNE 5.8 mph - N/A   Overcast
8:35 PM 24.8 °F 19.1 °F 21.2 °F 86% 29.97 in 1.2 mi NNE 4.6 mph - N/A   Overcast
8:55 PM 23.0 °F 18.4 °F 19.4 °F 86% 30.00 in 1.2 mi NNW 3.5 mph - N/A   Overcast
9:15 PM 23.0 °F 18.4 °F 21.2 °F 93% 29.99 in 1.0 mi NNW 3.5 mph - N/A   Overcast
9:35 PM 23.0 °F 18.4 °F 21.2 °F 93% 30.01 in 1.5 mi NW 3.5 mph - N/A   Overcast
9:55 PM 23.0 °F 17.0 °F 21.2 °F 93% 30.02 in 1.0 mi NW 4.6 mph - N/A   Overcast
10:15 PM 24.8 °F - 21.2 °F 86% 30.02 in 0.5 mi Calm Calm - N/A   Overcast
10:35 PM 24.8 °F - 21.2 °F 86% 30.02 in 1.0 mi Calm Calm - N/A   Overcast
10:55 PM 24.8 °F - 21.2 °F 86% 30.01 in 1.2 mi Calm Calm - N/A   Overcast
11:15 PM 24.8 °F - 21.2 °F 86% 30.02 in 1.0 mi Calm Calm - N/A   Overcast
11:35 PM 24.8 °F - 21.2 °F 86% 30.03 in 1.2 mi Calm Calm - N/A   Overcast
11:55 PM 23.0 °F - 21.2 °F 93% 30.03 in 1.2 mi Calm Calm - N/A   Overcast